Flag for U.S.A. Weather past 2 weeks in Topeka, Kansas, U.S.A.

Now
22 °F

Light snow. Mostly cloudy.


Feels Like: 13 °F
Forecast: 12 / 27 °F
Wind: 7 mph from Southeast

Location: Philip Billard Municipal Airport

Current Time: Feb 28, 2015 at 1:41:06 PM

Latest Report: Feb 28, 2015 at 12:53 PM


Visibility: 1 mi

Pressure: 30.49 "Hg

Humidity: 82%

Dew point: 17 °F

Location of TopekaLocation

Historic Weather in Topeka — Graph

°F

Topeka temperature yesterday

Maximum temperature yesterday: 19 °F (at 3:53 PM)
Minimum temperature yesterday: 4 °F (at 3:53 AM)
Average temperature yesterday: 12 °F

Past Weeks' High & Low Weather Summary

 TemperatureHumidityPressure
High56 °F (Feb 25, 1:53 PM)100% (Feb 21, 8:02 AM)30.83 "Hg (Feb 21, 8:02 AM)
Low2 °F (Feb 19, 1:53 AM)25% (Feb 14, 3:53 PM)29.72 "Hg (Feb 25, 2:53 PM)
Average23 °F62%30.30 "Hg
* Reported Feb 13 11:53 AM — Feb 28 11:53 AM, Topeka, Weather by CustomWeather, © 2015

Note: Actual official high and low records may vary slightly from our data, if they occured in-between our weather recording intervals... More about our weather records

Advertising

Topeka weather history for previous 24 hours

 ConditionsComfort  
Time TempWeatherWind HumidityBarometerVisibility
11:53 AM
Sat, Feb 28
21 °FLight snow. Mostly cloudy.9 mph81%30.52 "Hg1 mi
11:03 AM21 °FLight snow. Mostly cloudy.7 mph78%30.49 "Hg1 mi
9:53 AM19 °FLight snow. Ice fog.8 mph85%30.55 "Hg1 mi
8:53 AM18 °FLight snow. Ice fog.7 mph80%30.56 "Hg1 mi
8:03 AM18 °FLight snow. Mostly cloudy.7 mph71%30.50 "Hg2 mi
7:53 AM18 °FLight snow. Mostly cloudy.8 mph68%30.53 "Hg7 mi
6:53 AM16 °FOvercast.5 mph71%30.53 "Hg10 mi
5:53 AM15 °FOvercast.5 mph70%30.55 "Hg10 mi
4:53 AM13 °FPassing clouds.No wind70%30.55 "Hg10 mi
3:53 AM13 °FClear.No wind70%30.55 "Hg10 mi
2:53 AM13 °FClear.No wind67%30.57 "Hg10 mi
1:53 AM14 °FClear.3 mph67%30.57 "Hg10 mi
12:53 AM16 °FOvercast.3 mph62%30.58 "Hg10 mi
11:53 PM
Fri, Feb 27
17 °FOvercast.6 mph56%30.59 "Hg10 mi
10:53 PM16 °FOvercast.6 mph56%30.60 "Hg10 mi
9:53 PM16 °FPassing clouds.5 mph59%30.60 "Hg10 mi
8:53 PM15 °FPassing clouds.6 mph56%30.60 "Hg10 mi
7:53 PM17 °FOvercast.7 mph51%30.60 "Hg10 mi
6:53 PM19 °FOvercast.3 mph43%30.60 "Hg10 mi
5:53 PM19 °FMostly cloudy.3 mph41%30.60 "Hg10 mi
4:53 PM19 °FMostly cloudy.3 mph43%30.60 "Hg10 mi
3:53 PM19 °FPartly sunny.No wind43%30.62 "Hg10 mi
2:53 PM18 °FOvercast.3 mph45%30.61 "Hg10 mi
1:53 PM15 °FOvercast.3 mph49%30.64 "Hg10 mi
Weather by CustomWeather, © 2015

See weather overviewHow to use our weather pages